This demonstration page uses our WeatherBlox Daily Observations layout. Learn more.

Left ArrowRight Arrow

39.08367, -84.50855

Hourly Observations for June 3, 2020

Temp ( °F °C ) Dew Point ( °F °C ) Humidity (%) Winds ( mph kmh ) Pressure ( in mb ) Visibility ( mi km ) Precip ( " mm )
12:53 am 00:53 Clear 74 23.3 57 13.9 56 56 SW 9 15 29.94 1014 10 16.0934 0 0
1:53 am 01:53 Clear 75 23.9 57 13.9 54 54 SW 13 20 29.93 1014 10 16.0934 0 0
2:53 am 02:53 Clear 74 23.3 57 13.9 56 56 SW 9 15 29.92 1013 10 16.0934 0 0
3:53 am 03:53 Clear 72 22.2 57 13.9 59 59 SSW 6 9 29.93 1013 10 16.0934 0 0
4:53 am 04:53 Clear 68 20 58 14.4 70 70 SSW 8 13 29.93 1013 10 16.0934 0 0
5:53 am 05:53 Clear 66 18.9 58 14.4 75 75 SSW 7 11 29.93 1014 10 16.0934 0 0
6:53 am 06:53 Sunny 67 19.4 59 15 76 76 SW 5 7 29.92 1013 10 16.0934 0 0
7:53 am 07:53 Sunny 71 21.7 59 15 66 66 WSW 6 9 29.92 1013 10 16.0934 0 0
8:53 am 08:53 Mostly Cloudy 74 23.3 60 15.6 62 62 WSW 10 17 29.92 1013 10 16.0934 0 0
9:53 am 09:53 Partly Cloudy 78 25.6 62 16.7 58 58 WSW 9 15 29.9 1013 10 16.0934 0 0
10:53 am 10:53 Sunny 82 27.8 65 18.3 56 56 WSW 14 22 29.88 1012 10 16.0934 0 0
11:53 am 11:53 Sunny 83 28.3 67 19.4 59 59 WSW 10 17 29.88 1012 10 16.0934 0 0
12:53 pm 12:53 Mostly Sunny 85 29.4 67 19.4 55 55 W 18 30 29.87 1012 10 16.0934 0 0
1:53 pm 13:53 Sunny 86 30 67 19.4 53 53 WSW 12 19 29.85 1011 10 16.0934 0 0
2:53 pm 14:53 Mostly Sunny 88 31.1 67 19.4 50 50 W 10 17 29.85 1011 10 16.0934 0 0
3:53 pm 15:53 Mostly Sunny 88 31.1 67 19.4 50 50 W 14 22 29.83 1010 10 16.0934 0 0
4:53 pm 16:53 Mostly Sunny 88 31.1 66 18.9 48 48 WSW 12 19 29.81 1010 10 16.0934 0 0
5:53 pm 17:53 Mostly Sunny 87 30.6 65 18.3 48 48 WSW 10 17 29.78 1009 10 16.0934 0 0
6:53 pm 18:53 Sunny 86 30 66 18.9 51 51 SW 12 19 29.77 1008 10 16.0934 0 0
7:53 pm 19:53 Mostly Sunny 83 28.3 67 19.4 59 59 SSW 9 15 29.78 1008 10 16.0934 0 0
8:53 pm 20:53 Mostly Sunny 79 26.1 67 19.4 67 67 S 7 11 29.81 1009 10 16.0934 0 0
9:53 pm 21:53 Mostly Cloudy 78 25.6 68 20 71 71 SW 7 11 29.83 1010 10 16.0934 0 0
10:19 pm 22:19 Cloudy 78 25.6 62 16.7 58 58 N 12 19 29.84 1010 10 16.0934 0 0
10:53 pm 22:53 Mostly Clear 75 23.9 62 16.7 64 64 ENE 3 6 29.84 1010 10 16.0934 0 0
11:53 pm 23:53 Mostly Cloudy 73 22.8 64 17.8 74 74 Calm 29.84 1011 10 16.0934 0 0

Powered by AerisWeather